Weather History for PAIN - August, 2013

Change the Weather History Date:

Wednesday, August 7, 2013

  Actual Average Record
Temperature  
Mean Temperature 58 °F -  
Max Temperature 73 °F 64 °F 82 °F (1968)
Min Temperature 44 °F 41 °F 29 °F (1959)
Degree Days  
Heating Degree Days 6    
Growing Degree Days 8 (Base 50)    
Moisture  
Dew Point 40 °F    
Average Humidity 48    
Maximum Humidity 87    
Minimum Humidity 23    
Precipitation  
Precipitation 0.00 in - - ()
Sea Level Pressure  
Sea Level Pressure 29.79 in    
Wind  
Wind Speed 3 mph (SSW)    
Max Wind Speed 12 mph    
Max Gust Speed 24 mph    
Visibility 10 miles    
Events      
Averages and records for this station are not official NWS values.
T = Trace of Precipitation, MM = Missing Value Source: NWS Daily Summary

Daily Weather History Graph

Daily Weather History Graph

Search for Another Location

Airport or City:

Trip Planner

Search our weather history database for the weather conditions in past years. The results will help you decide how hot, cold, wet, or windy it might be!

Date:

Astronomy

Aug. 07, 2013 Rise Set
Actual Time 5:26 AM AKDT 10:33 PM AKDT
Civil Twilight 4:13 AM AKDT 11:45 PM AKDT
Nautical Twilight 2:33 AM AKDT 1:28 AM AKDT
Astronomical Twilight Sun does not set Sun does not set
Moon 7:12 AM AKDT (8/7) 9:47 PM AKDT (8/7)
Length of Visible Light 19h 31m
Length of Day
17h 07m
New Moon, 1% of the Moon is Illuminated
Aug 7
New Moon
Aug 14
First Quarter
Aug 20
Full
Aug 28
Last Quarter
Sep 5
New

Hourly Weather History & Observations

Time (AKDT) Temp. Windchill Dew Point Humidity Pressure Visibility Wind Dir Wind Speed Gust Speed Precip Events Conditions
12:16 AM 57.2 °F - 44.6 °F 63% 29.88 in 10.0 mi Calm Calm - N/A   Unknown
12:36 AM 57.2 °F - 44.6 °F 63% 29.88 in 10.0 mi Calm Calm - N/A   Unknown
12:56 AM 55.4 °F - 44.6 °F 67% 29.88 in 10.0 mi Calm Calm - N/A   Unknown
1:16 AM 53.6 °F - 44.6 °F 72% 29.88 in 10.0 mi WNW 3.5 mph - N/A   Unknown
1:36 AM 53.6 °F - 44.6 °F 72% 29.88 in 10.0 mi West 4.6 mph - N/A   Unknown
1:56 AM 51.8 °F - 42.8 °F 71% 29.88 in 10.0 mi West 3.5 mph - N/A   Unknown
2:16 AM 53.6 °F - 44.6 °F 72% 29.88 in 10.0 mi Calm Calm - N/A   Unknown
2:36 AM 53.6 °F - 44.6 °F 72% 29.88 in 10.0 mi Calm Calm - N/A   Unknown
2:56 AM 51.8 °F - 44.6 °F 76% 29.88 in 10.0 mi Calm Calm - N/A   Unknown
3:16 AM 51.8 °F - 42.8 °F 71% 29.87 in 10.0 mi Calm Calm - N/A   Unknown
3:36 AM 50.0 °F - 44.6 °F 82% 29.87 in 10.0 mi Calm Calm - N/A   Unknown
3:56 AM 51.8 °F - 42.8 °F 71% 29.87 in 10.0 mi Calm Calm - N/A   Unknown
4:16 AM 48.2 °F - 42.8 °F 82% 29.87 in 10.0 mi WSW 3.5 mph - N/A   Unknown
4:36 AM 48.2 °F - 42.8 °F 82% 29.86 in 10.0 mi WSW 3.5 mph - N/A   Unknown
4:56 AM 48.2 °F - 42.8 °F 82% 29.86 in 10.0 mi West 4.6 mph - N/A   Unknown
5:16 AM 46.4 °F 45.2 °F 42.8 °F 87% 29.86 in 10.0 mi West 3.5 mph - N/A   Unknown
5:36 AM 48.2 °F - 42.8 °F 82% 29.85 in 10.0 mi Calm Calm - N/A   Unknown
5:56 AM 44.6 °F - 41.0 °F 87% 29.85 in 10.0 mi Calm Calm - N/A   Unknown
6:16 AM 44.6 °F - 41.0 °F 87% 29.85 in 10.0 mi Calm Calm - N/A   Unknown
6:36 AM 46.4 °F - 41.0 °F 81% 29.85 in 10.0 mi Calm Calm - N/A   Unknown
6:56 AM 46.4 °F - 41.0 °F 81% 29.84 in 10.0 mi Calm Calm - N/A   Unknown
7:16 AM 51.8 °F - 42.8 °F 71% 29.84 in 10.0 mi WSW 4.6 mph - N/A   Unknown
7:36 AM 55.4 °F - 41.0 °F 58% 29.84 in 10.0 mi SW 4.6 mph - N/A   Unknown
7:56 AM 57.2 °F - 41.0 °F 55% 29.84 in 10.0 mi SSW 3.5 mph - N/A   Unknown
8:16 AM 60.8 °F - 39.2 °F 45% 29.83 in 10.0 mi SE 3.5 mph - N/A   Unknown
8:36 AM 62.6 °F - 39.2 °F 42% 29.83 in 8.0 mi SSE 4.6 mph - N/A   Unknown
8:56 AM 62.6 °F - 37.4 °F 39% 29.83 in 10.0 mi ESE 3.5 mph - N/A   Unknown
9:16 AM 64.4 °F - 37.4 °F 37% 29.83 in 10.0 mi SSE 4.6 mph - N/A   Unknown
9:36 AM 64.4 °F - 37.4 °F 37% 29.82 in 10.0 mi SSE 4.6 mph - N/A   Unknown
9:56 AM 66.2 °F - 35.6 °F 32% 29.82 in 10.0 mi SSW 9.2 mph 16.1 mph N/A   Unknown
10:16 AM 66.2 °F - 33.8 °F 30% 29.82 in 10.0 mi SSW 10.4 mph 21.9 mph N/A   Unknown
10:36 AM 68.0 °F - 35.6 °F 30% 29.81 in 8.0 mi South 9.2 mph 16.1 mph N/A   Unknown
10:56 AM 68.0 °F - 33.8 °F 28% 29.81 in 10.0 mi South 8.1 mph 16.1 mph N/A   Unknown
11:16 AM 69.8 °F - 33.8 °F 27% 29.80 in 10.0 mi South 8.1 mph 16.1 mph N/A   Unknown
11:36 AM 69.8 °F - 35.6 °F 28% 29.80 in 8.0 mi South 6.9 mph 17.3 mph N/A   Unknown
11:56 AM 69.8 °F - 35.6 °F 28% 29.80 in 10.0 mi South 8.1 mph 20.7 mph N/A   Unknown
12:16 PM 69.8 °F - 33.8 °F 27% 29.79 in 10.0 mi South 10.4 mph 24.2 mph N/A   Unknown
12:36 PM 69.8 °F - 35.6 °F 28% 29.79 in 10.0 mi South 10.4 mph 21.9 mph N/A   Unknown
12:56 PM 71.6 °F - 35.6 °F 27% 29.79 in 9.0 mi South 11.5 mph 18.4 mph N/A   Unknown
1:16 PM 71.6 °F - 35.6 °F 27% 29.78 in 10.0 mi South 10.4 mph 16.1 mph N/A   Unknown
1:36 PM 71.6 °F - 35.6 °F 27% 29.78 in 10.0 mi South 8.1 mph 16.1 mph N/A   Unknown
1:56 PM 71.6 °F - 35.6 °F 27% 29.78 in 10.0 mi South 8.1 mph 18.4 mph N/A   Unknown
2:16 PM 73.4 °F - 35.6 °F 25% 29.77 in 10.0 mi SSW 11.5 mph 17.3 mph N/A   Unknown
2:36 PM 73.4 °F - 35.6 °F 25% 29.76 in 10.0 mi SSW 10.4 mph 16.1 mph N/A   Unknown
2:56 PM 73.4 °F - 35.6 °F 25% 29.76 in 10.0 mi SE 8.1 mph - N/A   Unknown
3:16 PM 73.4 °F - 35.6 °F 25% 29.75 in 10.0 mi South 6.9 mph - N/A   Unknown
3:36 PM 73.4 °F - 33.8 °F 23% 29.75 in 10.0 mi SE 6.9 mph - N/A   Unknown
3:56 PM 73.4 °F - 35.6 °F 25% 29.74 in 10.0 mi South 10.4 mph 18.4 mph N/A   Unknown
4:16 PM 73.4 °F - 37.4 °F 27% 29.73 in 10.0 mi South 5.8 mph - N/A   Unknown
4:36 PM 73.4 °F - 37.4 °F 27% 29.73 in 10.0 mi South 6.9 mph - N/A   Unknown
4:56 PM 73.4 °F - 37.4 °F 27% 29.72 in 10.0 mi SSW 11.5 mph 18.4 mph N/A   Unknown
5:16 PM 73.4 °F - 37.4 °F 27% 29.72 in 10.0 mi South 8.1 mph - N/A   Unknown
5:36 PM 71.6 °F - 37.4 °F 29% 29.71 in 10.0 mi South 9.2 mph - N/A   Unknown
5:56 PM 71.6 °F - 39.2 °F 31% 29.71 in 10.0 mi SSW 3.5 mph - N/A   Unknown
6:16 PM 71.6 °F - 39.2 °F 31% 29.71 in 10.0 mi South 3.5 mph - N/A   Unknown
6:36 PM 71.6 °F - 39.2 °F 31% 29.71 in 10.0 mi South 6.9 mph - N/A   Unknown
6:56 PM 69.8 °F - 41.0 °F 35% 29.71 in 10.0 mi South 3.5 mph - N/A   Unknown
7:16 PM 69.8 °F - 41.0 °F 35% 29.70 in 7.0 mi South 3.5 mph - N/A   Unknown
7:36 PM 68.0 °F - 41.0 °F 37% 29.70 in 10.0 mi SSW 5.8 mph - N/A   Unknown
7:56 PM 66.2 °F - 42.8 °F 43% 29.71 in 10.0 mi Calm Calm - N/A   Unknown
8:16 PM 66.2 °F - 42.8 °F 43% 29.71 in 10.0 mi Calm Calm - N/A   Unknown
8:36 PM 66.2 °F - 42.8 °F 43% 29.71 in 10.0 mi Calm Calm - N/A   Unknown
8:56 PM 64.4 °F - 42.8 °F 45% 29.70 in 10.0 mi Calm Calm - N/A   Unknown
9:16 PM 64.4 °F - 42.8 °F 45% 29.70 in 10.0 mi Calm Calm - N/A   Unknown
9:36 PM 62.6 °F - 42.8 °F 48% 29.70 in 10.0 mi Calm Calm - N/A   Unknown
9:56 PM 62.6 °F - 42.8 °F 48% 29.70 in 10.0 mi Calm Calm - N/A   Unknown
10:16 PM 60.8 °F - 42.8 °F 52% 29.70 in 10.0 mi Calm Calm - N/A   Unknown
10:36 PM 60.8 °F - 42.8 °F 52% 29.70 in 10.0 mi Calm Calm - N/A   Unknown
10:56 PM 59.0 °F - 42.8 °F 55% 29.70 in 10.0 mi SW 3.5 mph - N/A   Unknown
11:16 PM 59.0 °F - 42.8 °F 55% 29.70 in 10.0 mi Calm Calm - N/A   Unknown
11:36 PM 57.2 °F - 42.8 °F 59% 29.70 in 10.0 mi Calm Calm - N/A   Unknown
11:56 PM 57.2 °F - 42.8 °F 59% 29.70 in 10.0 mi Calm Calm - N/A   Unknown